FW4395 Weather Reports


time (UTC)temp
C
wind
direction
speed
KPH
gust
KPH
rain 1hr
cm
rain 24hr
cm
rain mn
cm
humidity
%
barometer
mb
20260507015505 17 56 6.4 11.3 0.00 0.00 0.00 34 1007.1
20260507015005 17 57 4.8 12.9 0.00 0.00 0.00 33 1007.0
20260507014504 17 52 8.0 14.5 0.00 0.00 0.00 32 1006.9
20260507014005 18 55 8.0 12.9 0.00 0.00 0.00 32 1006.8
20260507013005 17 58 8.0 16.1 0.00 0.00 0.00 33 1006.7
20260507012505 17 61 6.4 12.9 0.00 0.00 0.00 35 1006.8
20260507011505 17 49 8.0 14.5 0.00 0.00 0.00 34 1006.8
20260507010505 17 60 6.4 11.3 0.00 0.00 0.00 32 1006.8
20260507010005 18 58 3.2 16.1 0.00 0.00 0.00 32 1006.8
20260507005006 18 63 3.2 9.7 0.00 0.00 0.00 31 1006.7
20260507004505 18 60 6.4 11.3 0.00 0.00 0.00 32 1006.7
20260507004005 18 40 3.2 9.7 0.00 0.00 0.00 34 1006.7
20260507003504 18 39 4.8 16.1 0.00 0.00 0.00 33 1006.9
20260507003005 18 55 8.0 19.3 0.00 0.00 0.00 32 1006.9
20260507002005 18 336 12.9 35.4 0.00 0.00 0.00 33 1007.0
20260507001505 18 19 8.0 16.1 0.00 0.00 0.00 34 1007.1
20260507001004 17 337 3.2 14.5 0.00 0.00 0.00 34 1007.0
20260507000005 17 131 6.4 25.7 0.00 0.00 0.00 36 1007.0
20260506235505 18 292 20.9 32.2 0.00 0.00 0.00 32 1006.9
20260506235004 18 86 1.6 3.2 0.00 0.00 0.00 29 1006.6
20260506234505 19 50 3.2 9.7 0.00 0.00 0.00 29 1006.4
20260506234005 19 54 4.8 14.5 0.00 0.00 0.00 30 1006.1
20260506233505 19 54 8.0 14.5 0.00 0.00 0.00 29 1005.9
20260506233005 20 71 8.0 19.3 0.00 0.00 0.00 28 1005.9
20260506232505 20 57 8.0 14.5 0.00 0.00 0.00 28 1005.9
20260506231505 20 53 9.7 22.5 0.00 0.00 0.00 27 1005.9
20260506230505 20 75 9.7 20.9 0.00 0.00 0.00 28 1006.0
20260506230005 20 58 8.0 19.3 0.00 0.00 0.00 28 1005.9
20260506225005 20 123 4.8 4.8 0.00 0.00 0.00 28 1006.1
20260506224505 20 122 1.6 8.0 0.00 0.00 0.00 27 1006.3
20260506224006 20 323 3.2 11.3 0.00 0.00 0.00 27 1006.4
20260506223505 20 326 4.8 8.0 0.00 0.00 0.00 27 1006.3
20260506222505 20 37 4.8 9.7 0.00 0.00 0.00 28 1006.1
20260506222005 21 77 6.4 14.5 0.00 0.00 0.00 27 1006.3
20260506221005 21 87 9.7 16.1 0.00 0.00 0.00 28 1006.3
20260506220505 21 128 8.0 14.5 0.00 0.00 0.00 29 1006.4
20260506220005 21 80 6.4 11.3 0.00 0.00 0.00 30 1006.4
20260506215006 20 65 9.7 19.3 0.00 0.00 0.00 27 1006.6
20260506214505 20 76 8.0 11.3 0.00 0.00 0.00 27 1006.7
20260506214005 20 45 3.2 11.3 0.00 0.00 0.00 28 1006.6
20260506213505 20 44 3.2 11.3 0.00 0.00 0.00 28 1006.6
20260506213005 20 57 4.8 8.0 0.00 0.00 0.00 26 1006.7
20260506212505 20 345 9.7 16.1 0.00 0.00 0.00 25 1006.7
20260506212004 20 31 3.2 4.8 0.00 0.00 0.00 26 1006.6
20260506211005 20 52 4.8 12.9 0.00 0.00 0.00 26 1006.7
20260506210505 20 78 8.0 12.9 0.00 0.00 0.00 26 1006.7
20260506210005 20 278 1.6 4.8 0.00 0.00 0.00 25 1006.7
20260506205504 21 72 8.0 19.3 0.00 0.00 0.00 24 1006.8
20260506205005 21 12 3.2 8.0 0.00 0.00 0.00 26 1006.7
20260506204005 21 2 3.2 16.1 0.00 0.00 0.00 25 1006.7
20260506203005 20 64 4.8 9.7 0.00 0.00 0.00 26 1006.8
20260506202005 21 340 8.0 25.7 0.00 0.00 0.00 24 1006.8
20260506201005 21 32 4.8 14.5 0.00 0.00 0.00 26 1007.0
20260506200505 21 65 6.4 14.5 0.00 0.00 0.00 27 1006.9
20260506200005 21 31 6.4 25.7 0.00 0.00 0.00 25 1006.9
20260506195505 21 338 19.3 27.4 0.00 0.00 0.00 23 1007.0
20260506195005 21 337 8.0 20.9 0.00 0.00 0.00 24 1007.0
20260506194504 21 51 9.7 19.3 0.00 0.00 0.00 25 1007.1
20260506193505 21 52 8.0 19.3 0.00 0.00 0.00 26 1007.2
20260506193005 20 65 6.4 19.3 0.00 0.00 0.00 26 1007.1
20260506192504 20 42 8.0 14.5 0.00 0.00 0.00 27 1007.1
20260506192005 20 48 8.0 20.9 0.00 0.00 0.00 26 1007.2
20260506191505 20 20 6.4 29.0 0.00 0.00 0.00 25 1007.3
20260506190504 21 357 4.8 16.1 0.00 0.00 0.00 25 1007.4
20260506190006 21 349 11.3 22.5 0.00 0.00 0.00 25 1007.4
20260506185504 21 331 4.8 14.5 0.00 0.00 0.00 26 1007.5
20260506185005 20 10 1.6 12.9 0.00 0.00 0.00 28 1007.5
20260506184505 20 313 4.8 14.5 0.00 0.00 0.00 25 1007.5
20260506184005 20 52 3.2 9.7 0.00 0.00 0.00 26 1007.6
20260506183505 19 151 3.2 14.5 0.00 0.00 0.00 26 1007.7
20260506182504 19 316 12.9 20.9 0.00 0.00 0.00 26 1007.6
20260506182004 19 230 6.4 12.9 0.00 0.00 0.00 27 1007.7
20260506181505 18 297 11.3 19.3 0.00 0.00 0.00 26 1007.8
20260506180505 18 305 8.0 19.3 0.00 0.00 0.00 26 1008.0
20260506180005 18 307 17.7 32.2 0.00 0.00 0.00 27 1008.0
20260506174005 18 320 8.0 19.3 0.00 0.00 0.00 28 1008.2
20260506173505 17 256 4.8 19.3 0.00 0.00 0.00 28 1008.2
20260506173004 17 324 6.4 19.3 0.00 0.00 0.00 27 1008.3
20260506172505 17 269 11.3 19.3 0.00 0.00 0.00 27 1008.3
20260506172005 17 271 11.3 20.9 0.00 0.00 0.00 28 1008.5
20260506171505 17 256 11.3 24.1 0.00 0.00 0.00 28 1008.5
20260506171005 17 266 8.0 19.3 0.00 0.00 0.00 27 1008.5
20260506170505 17 257 11.3 20.9 0.00 0.00 0.00 28 1008.6
20260506170005 17 257 12.9 22.5 0.00 0.00 0.00 29 1008.7
20260506165504 17 264 14.5 20.9 0.00 0.00 0.00 29 1008.7
20260506165005 16 255 14.5 20.9 0.00 0.00 0.00 29 1008.7
20260506164504 16 264 11.3 24.1 0.00 0.00 0.00 31 1008.9
20260506163505 16 265 14.5 19.3 0.00 0.00 0.00 30 1009.0
20260506163005 16 250 11.3 19.3 0.00 0.00 0.00 31 1009.1
20260506162506 15 270 12.9 19.3 0.00 0.00 0.00 33 1009.2
20260506161505 14 255 8.0 16.1 0.00 0.00 0.00 35 1009.3
20260506161005 14 215 8.0 16.1 0.00 0.00 0.00 36 1009.4
20260506160505 13 205 8.0 12.9 0.00 0.00 0.00 37 1009.6
20260506160004 13 191 8.0 12.9 0.00 0.00 0.00 38 1009.6
20260506155505 12 223 11.3 19.3 0.00 0.00 0.00 37 1009.7
20260506154504 12 216 8.0 19.3 0.00 0.00 0.00 40 1009.8
20260506154005 11 253 12.9 19.3 0.00 0.00 0.00 40 1009.9
20260506153505 11 225 9.7 19.3 0.00 0.00 0.00 41 1010.0
20260506153005 11 226 16.1 22.5 0.00 0.00 0.00 41 1009.9
20260506152504 11 245 11.3 19.3 0.00 0.00 0.00 42 1010.0
20260506152005 10 226 12.9 19.3 0.00 0.00 0.00 43 1010.1
20260506151505 10 245 14.5 19.3 0.00 0.00 0.00 42 1010.0
20260506150505 10 217 12.9 19.3 0.00 0.00 0.00 43 1010.2
20260506150005 10 233 9.7 14.5 0.00 0.00 0.00 45 1010.3
20260506145004 8 212 6.4 16.1 0.00 0.00 0.00 46 1010.3
20260506144504 8 222 8.0 12.9 0.00 0.00 0.00 46 1010.4
20260506144005 8 229 8.0 11.3 0.00 0.00 0.00 49 1010.4
20260506143004 7 240 9.7 12.9 0.00 0.00 0.00 49 1010.6
20260506142504 7 248 9.7 14.5 0.00 0.00 0.00 50 1010.5
20260506142005 6 250 11.3 14.5 0.00 0.00 0.00 52 1010.6
20260506141505 6 257 11.3 14.5 0.00 0.00 0.00 53 1010.7
20260506141005 6 251 11.3 14.5 0.00 0.00 0.00 54 1010.6
20260506140504 5 259 11.3 14.5 0.00 0.00 0.00 54 1010.7
20260506140005 5 255 9.7 12.9 0.00 0.00 0.00 56 1010.7
20260506135005 3 260 9.7 12.9 0.00 0.00 0.00 58 1010.8
20260506134505 3 261 6.4 9.7 0.00 0.00 0.00 58 1010.9
20260506134004 2 271 8.0 11.3 0.00 0.00 0.00 58 1010.9
20260506133505 2 285 6.4 9.7 0.00 0.00 0.00 59 1011.0
20260506133005 2 260 6.4 9.7 0.00 0.00 0.00 60 1010.8
20260506132504 1 251 4.8 8.0 0.00 0.00 0.00 61 1010.9
20260506132005 1 249 4.8 4.8 0.00 0.00 0.00 60 1010.9
20260506131505 1 248 3.2 8.0 0.00 0.00 0.00 61 1010.9
20260506131004 0 245 3.2 4.8 0.00 0.00 0.00 61 1010.9
20260506130505 0 236 1.6 3.2 0.00 0.00 0.00 60 1010.9
20260506130005 0 247 1.6 3.2 0.00 0.00 0.00 58 1010.9
20260506125505 1 223 1.6 3.2 0.00 0.00 0.00 56 1010.9
20260506124505 1 203 3.2 4.8 0.00 0.00 0.00 56 1011.0
20260506124004 0 191 3.2 4.8 0.00 0.00 0.00 58 1011.0
20260506123505 0 193 3.2 4.8 0.00 0.00 0.00 58 1011.0
20260506123005 0 194 4.8 8.0 0.00 0.00 0.00 57 1011.1
20260506122505 0 186 4.8 4.8 0.00 0.00 0.00 57 1011.0
20260506122004 0 194 3.2 4.8 0.00 0.00 0.00 57 1011.1
20260506120505 0 175 0.0 3.2 0.00 0.00 0.00 56 1011.3
20260506120005 0 179 0.0 3.2 0.00 0.00 0.00 56 1011.2
20260506115504 0 180 0.0 4.8 0.00 0.00 0.00 56 1011.5
20260506115004 0 186 0.0 3.2 0.00 0.00 0.00 56 1011.5
20260506114504 0 162 1.6 3.2 0.00 0.00 0.00 56 1011.5
20260506114005 0 166 1.6 3.2 0.00 0.00 0.00 56 1011.7
20260506113505 0 158 1.6 4.8 0.00 0.00 0.00 56 1011.9
20260506113005 0 172 0.0 3.2 0.00 0.00 0.00 56 1011.8
20260506112005 0 150 1.6 4.8 0.00 0.00 0.00 56 1011.9
20260506111504 0 171 0.0 4.8 0.00 0.00 0.00 56 1011.9
20260506111005 0 154 1.6 3.2 0.00 0.00 0.00 56 1012.0
20260506110004 0 145 1.6 3.2 0.00 0.00 0.00 56 1012.1
20260506105504 0 144 1.6 3.2 0.00 0.00 0.00 55 1012.2
20260506105005 0 150 1.6 4.8 0.00 0.00 0.00 55 1012.2
20260506104004 0 137 1.6 4.8 0.00 0.00 0.00 55 1012.3
20260506103504 0 130 3.2 4.8 0.00 0.00 0.00 55 1012.3
20260506103005 0 128 3.2 4.8 0.00 0.00 0.00 55 1012.4
20260506102505 0 137 1.6 4.8 0.00 0.00 0.00 55 1012.4
20260506102004 0 128 4.8 8.0 0.00 0.00 0.00 55 1012.5
20260506101504 0 123 3.2 4.8 0.00 0.00 0.00 56 1012.6
20260506101004 0 125 4.8 4.8 0.00 0.00 0.00 55 1012.7
20260506100505 0 125 4.8 8.0 0.00 0.00 0.00 55 1012.8
20260506100005 0 127 4.8 8.0 0.00 0.00 0.00 55 1012.9
20260506095505 0 134 3.2 8.0 0.00 0.00 0.00 55 1012.9
20260506094504 0 130 4.8 9.7 0.00 0.00 0.00 54 1013.0
20260506094004 0 127 4.8 8.0 0.00 0.00 0.00 54 1013.2
20260506093505 0 133 6.4 12.9 0.00 0.00 0.00 54 1013.3
20260506093004 0 127 4.8 8.0 0.00 0.00 0.00 55 1013.5
20260506092504 0 127 4.8 9.7 0.00 0.00 0.00 55 1013.4
20260506092004 0 126 4.8 8.0 0.00 0.00 0.00 55 1013.5
20260506091505 0 126 4.8 9.7 0.00 0.00 0.00 55 1013.6
20260506091004 0 131 4.8 8.0 0.00 0.00 0.00 55 1013.7
20260506085005 0 124 4.8 9.7 0.00 0.00 0.00 55 1013.9
20260506084505 0 134 4.8 8.0 0.00 0.00 0.00 55 1013.9
20260506084005 0 136 3.2 4.8 0.00 0.00 0.00 56 1014.0
20260506083505 0 136 3.2 4.8 0.00 0.00 0.00 56 1014.0
20260506083004 0 130 3.2 4.8 0.00 0.00 0.00 57 1014.1
20260506082505 0 119 3.2 4.8 0.00 0.00 0.00 57 1014.1
20260506082004 0 122 3.2 4.8 0.00 0.00 0.00 56 1014.2
20260506081005 0 122 3.2 4.8 0.00 0.00 0.00 58 1014.3
20260506073504 0 124 3.2 4.8 0.00 0.00 0.00 54 1014.8
20260506073004 1 125 4.8 8.0 0.00 0.00 0.00 53 1014.8
20260506072505 1 126 4.8 8.0 0.00 0.00 0.00 53 1014.9
20260506072004 1 129 4.8 9.7 0.00 0.00 0.00 53 1014.9
20260506071505 1 131 4.8 9.7 0.00 0.00 0.00 53 1015.0
20260506071005 1 125 4.8 9.7 0.00 0.00 0.00 53 1015.1
20260506070504 0 134 6.4 9.7 0.00 0.00 0.00 53 1015.2
20260506062505 1 124 4.8 8.0 0.00 0.00 0.00 53 1015.7
20260506062004 1 127 3.2 8.0 0.00 0.00 0.00 53 1015.7
20260506061505 1 130 4.8 8.0 0.00 0.00 0.00 53 1015.8
20260506060505 0 120 1.6 4.8 0.00 0.00 0.00 56 1015.8
20260506051004 0 130 0.0 1.6 0.00 0.00 0.00 54 1016.4
20260506050504 0 110 0.0 4.8 0.00 0.00 0.00 54 1016.4
20260506045004 1 143 1.6 4.8 0.00 0.00 0.00 54 1016.5
20260506044504 0 110 1.6 4.8 0.00 0.00 0.00 54 1016.7
20260506044004 1 100 0.0 1.6 0.00 0.00 0.00 55 1016.5
20260506043005 1 62 1.6 3.2 0.00 0.00 0.00 54 1016.6
20260506042004 1 130 0.0 1.6 0.00 0.00 0.00 53 1016.7
20260506041505 1 68 1.6 4.8 0.00 0.00 0.00 52 1016.7
20260506041004 1 136 1.6 3.2 0.00 0.00 0.00 52 1016.7
20260506040504 1 110 0.0 3.2 0.00 0.00 0.00 52 1016.7
20260506040005 1 89 1.6 3.2 0.00 0.00 0.00 52 1016.8
20260506035505 1 112 1.6 3.2 0.00 0.00 0.00 51 1016.9
20260506035004 1 90 1.6 3.2 0.00 0.00 0.00 51 1016.9
20260506034504 2 96 1.6 4.8 0.00 0.00 0.00 50 1016.9
20260506034005 2 102 1.6 3.2 0.00 0.00 0.00 49 1016.8
20260506033504 2 109 1.6 3.2 0.00 0.00 0.00 49 1016.8
20260506033005 2 79 1.6 3.2 0.00 0.00 0.00 48 1016.8
20260506032004 3 132 1.6 3.2 0.00 0.00 0.00 47 1016.8
20260506031504 3 132 0.0 1.6 0.00 0.00 0.00 47 1016.7
20260506030504 3 132 0.0 1.6 0.00 0.00 0.00 44 1016.7
20260506030004 4 146 0.0 1.6 0.00 0.00 0.00 44 1016.7
20260506025504 5 95 0.0 1.6 0.00 0.00 0.00 43 1016.7
20260506025005 5 95 0.0 1.6 0.00 0.00 0.00 41 1016.7
20260506024505 6 95 0.0 3.2 0.00 0.00 0.00 40 1016.7
20260506024004 6 83 0.0 1.6 0.00 0.00 0.00 38 1016.7
20260506023504 7 83 1.6 4.8 0.00 0.00 0.00 37 1016.6
20260506023004 7 99 1.6 4.8 0.00 0.00 0.00 36 1016.7
20260506022004 7 140 3.2 9.7 0.00 0.00 0.00 35 1016.6
20260506021504 8 63 3.2 4.8 0.00 0.00 0.00 33 1016.5
20260506021005 8 125 1.6 4.8 0.00 0.00 0.00 33 1016.6
20260506020504 8 125 0.0 3.2 0.00 0.00 0.00 34 1016.7
20260506020004 8 118 3.2 4.8 0.00 0.00 0.00 32 1016.7